Regional Weather Roundup
Issued by NWS Mt. Holly, NJ

Home | Current Version | Previous Version | Text Only | Print | Product List | Glossary On
Versions: 1 2 3 4 5 6 7 8 9 10 11 12 13 14 15 16 17 18 19 20 21 22 23 24 25 26 27 28
000
ASUS41 KPHI 171911
RWRPHI

REGIONAL WEATHER ROUNDUP
NATIONAL WEATHER SERVICE MOUNT HOLLY NJ
200 PM EST TUE JAN 17 2017

NOTE:  "FAIR" INDICATES FEW OR NO CLOUDS BELOW 12,000 FEET WITH NO
SIGNIFICANT WEATHER AND/OR OBSTRUCTIONS TO VISIBILITY.

 * = STATION DOES NOT REPORT PRECIPITATION (E.G. RAIN, SNOW, ETC.)
        OR FOG.

NJZ015>026-172000-
SOUTHERN NEW JERSEY

CITY           SKY/WX    TMP DP  RH WIND       PRES   REMARKS
POMONA         CLOUDY    44  40  85 SE12      30.10F
MILLVILLE      LGT RAIN  44  44 100 E6        30.08F FOG
WRIGHTSTOWN    CLOUDY    43  39  85 SE7       30.06F
MOUNT HOLLY    CLOUDY    43  40  89 SE3       30.10F FOG
TRENTON        CLOUDY    42  36  79 E6        30.09F

$$
NJZ001>014-172000-
NORTHERN NEW JERSEY

CITY           SKY/WX    TMP DP  RH WIND       PRES   REMARKS
SUSSEX         LGT RAIN  35  33  92 NE5       30.10F FOG     WCI  31
ANDOVER*         N/A     36  34  92 CALM      30.09F
MORRISTOWN     LGT RAIN  37  36  93 CALM      30.12F FOG
NEWARK         CLOUDY    40  36  86 NE5       30.12F FOG
TETERBORO      LGT RAIN  40  36  86 E6        30.12F FOG
CALDWELL       LGT RAIN  38  36  92 CALM      30.13F FOG
SOMERVILLE     LGT RAIN  38  36  92 CALM      30.09F FOG
ALLAIRE*       CLOUDY    41  35  79 SE7       30.13F
TOMS RIVER*    CLOUDY    44  39  82 SE5       30.12F

$$
PAZ043-044-047-054-055-060>062-066>071-172000-
EASTERN PENNSYLVANIA

CITY           SKY/WX    TMP DP  RH WIND       PRES   REMARKS
PHILADELPHIA   CLOUDY    44  40  85 SE5       30.10F FOG
NORTH PHILA    CLOUDY    44  39  82 E9        30.10F
BLUE BELL*     CLOUDY    41  37  87 SE3       30.08S
DOYLESTOWN     CLOUDY    42  37  82 CALM      30.07F
QUAKERTOWN*    CLOUDY    39  36  87 SE6       30.07F WCI  35
PERKASIE*      CLOUDY    39  36  87 E6        30.07F WCI  35
POTTSTOWN      CLOUDY    40  36  86 VRB6      30.08F FOG
LANCASTER      LGT RAIN  42  41  96 SE6       30.05S FOG
COATESVILLE    CLOUDY    41  39  93 SE5       30.06F FOG
READING        CLOUDY    42  35  76 SE8       30.05F
ALLENTOWN      CLOUDY    38  33  82 E9        30.07F HAZE    WCI  31
MOUNT POCONO   FRZ RAIN  31  30  96 E7        30.00F VSB<1/4 WCI  24
HAZLETON       LGT RAIN  34  34 100 SE7       30.01F VSB 1/4 WCI  28
LEHIGHTON      LGT RAIN  36  34  93 CALM      30.08F
WILKES BARRE   LGT RAIN  39  37  92 E5        30.00F FOG

$$
DEZALL-MDZ008-012-015-019-020-172000-
DELAWARE AND EASTERN MARYLAND

CITY           SKY/WX    TMP DP  RH WIND       PRES   REMARKS
WILMINGTON     CLOUDY    43  42  97 S5        30.08F FOG
DOVER          CLOUDY    46  46 100 E3        30.07S
GEORGETOWN     CLOUDY    48  45  89 S6        30.08F FOG
EASTON         CLOUDY    48  45  87 S7        30.11F FOG
ABERDEEN       LGT RAIN  43  42  97 CALM      30.09S FOG
PATUXENT       PTSUNNY   46  44  93 SE5       30.07F FOG
OCEAN CITY     CLOUDY    45  44  97 SW8       30.10F
WALLOPS ISLAND CLOUDY    49  47  93 S16       30.10F
CAMBRIDGE      CLOUDY    45  43  93 S8        30.06F
SALISBURY      CLOUDY    49  47  93 S7        30.07F FOG

$$
PAZ001-021-NYZ056-072-MDZ011-DCZ001-172000-
OTHER NEARBY LOCATIONS

CITY           SKY/WX    TMP DP  RH WIND       PRES   REMARKS
HARRISBURG     CLOUDY    40  39  97 SE5       30.03F FOG
STATE COLLEGE  LGT RAIN  36  36 100 CALM      29.93F VSB 1
WILLIAMSPORT   CLOUDY    38  34  85 E10       29.98F FOG     WCI  31
BINGHAMTON     RAIN      33  32  96 SE15      29.94F FOG     WCI  23
NEW YORK CITY  CLOUDY    39  37  92 E8        30.13F FOG     WCI  33
BALTIMORE      LGT RAIN  44  44 100 E5        30.05F FOG
WASHINGTON DC  CLOUDY    47  45  93 S7        30.05F FOG

$$




USA.gov is the U.S. government's official web portal to all federal, state and local government web resources and services.